Weather Service Report


293 
ASUS44 KEWX 251511
RWRTX 
SOUTH TEXAS REGIONAL WEATHER ROUNDUP
NATIONAL WEATHER SERVICE AUSTIN/SAN ANTONIO TX
1000 AM CDT MON MAY 25 2015

NOTE: "FAIR" INDICATED FEW OR NO CLOUDS BELOW 12,000 FEET WITH NO
SIGNIFICANT WEATHER AND/OR OBSTRUCTIONS TO VISIBILITY.

* - THESE STATIONS ARE NOT NWS OR FAA STATIONS...AND ARE NOT SUBJECT
    TO NWS AND FAA QUALITY CONTROL.
 
TXZ171-172-183>190-251600-
TEXAS HILL COUNTRY AND EDWARDS PLATEAU
  
CITY           SKY/WX    TMP DP  RH WIND       PRES   REMARKS
JUNCTION       CLOUDY    68  60  75 SE13      29.89R                  
*LLANO         CLOUDY    73  70  88 S9G16     29.96R THUNDER FOG      
BURNET         CLOUDY    73  69  87 MISG      29.94R                  
*HORSESHOE BAY CLOUDY    74  70  86 S6        29.91R                  
*KERRVILLE     TSTM      72  69  93 S8        29.93R                  
*FREDERICKSBRG CLOUDY    71  67  89 SE6       29.92R THUNDER          
*ROCKSPRINGS   CLOUDY    70  70 100 SE16      29.92S FOG              
*BOERNE STAGE    N/A     72  70  94 S10       29.92S                  
*CASTROVILLE   CLOUDY    76  72  87 SE9       29.91S                  
HONDO          LGT RAIN  74  72  93 SE12      29.90S                  
*UVALDE        CLOUDY    73  72  98 SE7       29.88S FOG              
DEL RIO        NOT AVBL                                               
LAUGHLIN AFB   CLOUDY    75  75 100 SE17      29.83F                  
CARRIZO SPRGS  CLOUDY    75  72  88 SE5       29.85R                  
$$

TXZ173-191>194-202-209-217>225-228-251600-
CENTRAL AND SOUTH CENTRAL TEXAS
  
CITY           SKY/WX    TMP DP  RH WIND       PRES   REMARKS
GEORGETOWN     CLOUDY    73  72  94 S8        29.91R                  
AUSTIN/BERGSTM CLOUDY    76  72  87 SE16      29.91R                  
AUSTIN/MABRY   CLOUDY    76  71  85 S6        29.91S                  
*AUSTIN/EXEC   CLOUDY    75  72  88 S7        29.92S                  
*LAGO VISTA    CLOUDY    74  71  89 S7        29.93F                  
SAN MARCOS     CLOUDY    75  72  88 SE15      29.90F                  
NEW BRAUNFELS  CLOUDY    78  72  81 S16G24    29.88F                  
RANDOLPH AFB   CLOUDY    77  73  88 SE14G20   29.89S HAZE             
PT SAN ANTONIO CLOUDY    77  72  83 SE13      29.89R                  
SAN ANTONIO    CLOUDY    77  71  82 SE17      29.90S                  
STINSON FIELD  CLOUDY    77  72  84 SE14G21   29.88R                  
*PLEASANTON    CLOUDY    78  72  82 SE13G20   29.87F                  
*LA GRANGE     CLOUDY    80  75  85 S12G17    29.91S                  
*GIDDINGS      CLOUDY    77  72  83 S12G17    29.96S                  
*GONZALES      FOG       80  76  87 SE8       29.90S VSB 1            
$$

TXZ163>164-176>182-195>201-210>213-226-227-235-251600-
SOUTHEAST TEXAS
  
CITY           SKY/WX    TMP DP  RH WIND       PRES   REMARKS
COLLEGE STN    CLOUDY    79  72  79 S15G25    29.93F                  
*BRYAN         CLOUDY    78  73  84 S14       29.95S                  
*CALDWELL      PTSUNNY   77  73  88 S12       29.96S                  
*CROCKETT      NOT AVBL                                               
*BRENHAM       PTSUNNY   81  75  83 SE14      29.94F                  
HUNTSVILLE     CLOUDY    78  72  81 S8G17     29.96F                  
CONROE         PTSUNNY   80  72  76 SE14G20   29.97F                  
HOUSTON BUSH   PTSUNNY   81  73  76 S10       29.96F                  
HOUSTON HOBBY  MOSUNNY   82  75  79 S10       29.96F                  
*HOUSTON SW AP NOT AVBL                                               
PEARLAND       CLOUDY    83  74  74 SE13G22   29.98S                  
HOUSTON HOOKS  MOSUNNY   82  73  74 S14G21    29.96F                  
ELLINGTON FLD  PTSUNNY   81  73  78 SE12      29.98F                  
SUGAR LAND     PTSUNNY   83  73  72 S16       29.95F                  
*HOUSTON EXEC  PTSUNNY   82  73  74 S14       29.96S                  
*CLEVELAND MUN CLOUDY    78  75  90 SE6       29.99F                  
*WHARTON       PTSUNNY   82  75  79 SE17      29.95S                  
*COLUMBUS      CLOUDY    79  74  86 SE12G17   29.93S                  
$$

TXZ214>216-236>238-251600-
THE UPPER TEXAS COAST
  
CITY           SKY/WX    TMP DP  RH WIND       PRES   REMARKS
*ORANGE        MOSUNNY   82  72  71 SE10      30.03R                  
PORT ARTHUR    PTSUNNY   82  74  76 SE14G22   30.00R                  
GALVESTON      PTSUNNY   82  78  88 SE13      29.99R HX  91           
ANGLETON       PTSUNNY   79  74  84 S16G24    29.96S                  
*BAY CITY      CLOUDY    83  77  81 SE15G24   29.95S HX  92           
PALACIOS       PTSUNNY   82  76  81 SE21G26   29.94S                  
$$

TXZ229>234-239>247-251600-
TEXAS COASTAL BEND AND RIO GRANDE PLAINS
  
CITY           SKY/WX    TMP DP  RH WIND       PRES   REMARKS
VICTORIA       MOSUNNY   83  75  77 SE24      29.91S HX  90           
*BEEVILLE      PTSUNNY   82  77  85 SE18G25   29.89R HX  90           
ROCKPORT       CLOUDY    83  75  77 SE16G26   29.89S HX  90           
*PORT ARANSAS  CLOUDY    82  76  82 SE20G25   29.90S HX  90           
*PORT LAVACA   PTSUNNY   81  76  84 SE16G24   29.92S                  
*INGLESIDE     PTSUNNY   84  76  78 SE23G37   29.88F HX  93           
CORPUS CHRISTI CLOUDY    82  75  79 SE24G31   29.88R                  
CORPUS NAS     PTSUNNY   83  77  82 SE21G31   29.89S HX  92           
*ROBSTOWN      CLOUDY    83  77  83 SE16G22   29.88S HX  91           
ALICE          LGT RAIN  83  75  77 SE15G36   29.87R HX  90           
KINGSVILLE NAS PTSUNNY   81  79  94 SE15      29.87R HX  90           
COTULLA        CLOUDY    77  73  87 SE10      29.86S                  
*FAITH RANCH     N/A     79  73  83 S14       29.85S                  
LAREDO         CLOUDY    79  74  84 SE10      29.87R                  
$$

TXZ248>255-251600-
DEEP SOUTH TEXAS
  
CITY           SKY/WX    TMP DP  RH WIND       PRES   REMARKS
BROWNSVILLE    CLOUDY    83  76  79 SE15G31   29.87R HX  91           
PORT ISABEL    CLOUDY    83  76  79 SE23G35   29.86S HX  91           
*SOUTH PADRE     N/A     99 N/A N/A S21       29.88R                  
HARLINGEN      PTSUNNY   84  77  79 SE22G28   29.85R HX  94           
*HEBBRONVILLE    N/A     77  74  90 SE17G23   29.87R                  
MCALLEN        CLOUDY    85  76  74 SE22G29   29.84R HX  94           
*WESLACO       CLOUDY    83  75  77 SE16G25   29.84S HX  90           
FALFURRIAS     CLOUDY    82  75  79 SE13G20   29.86R                  
EDINBURG       CLOUDY    84  75  75 SE14G23   29.85R HX  91           
*ZAPATA        CLOUDY    80  74  83 SE13G18   29.83R                  
$$

TXZ213>215-236>238-242>244-246-247-251-254-255-251600-
CMAN STATIONS
  
STATION/POSITION TIME  TEMP    WIND        PRES    WAVE
                       AIR SEA DIR/SP/G            HT/PER
                 (UTC) (F)     (DEG/KT/KT) (MB)    (FT/S)
$$

GMZ080-GMZ150>470-251600-
OFFSHORE BUOY REPORTS
  
STATION/POSITION TIME  TEMP    WIND        PRES    WAVE
                       AIR SEA DIR/SP/G            HT/PER
                 (UTC) (F)     (DEG/KT/KT) (MB)    (FT/S)
$$

Return to Home page


Western Regional Climate Center, wrcc@dri.edu